811  
FPUS82 KCHS 170212  
OPUCHS  
 
TEST   
..KCHS/KSAV GATEWAY OBSERVATIONS
 
TEST  
NATIONAL WEATHER SERVICE CHARLESTON SC  
1000 PM EDT MON JUL 16 2018  
 
NOTE: "FAIR" INDICATES FEW OR NO CLOUDS BELOW 12,000 FEET WITH NO  
SIGNIFICANT WEATHER AND/OR OBSTRUCTIONS TO VISIBILITY.  
 
SCZ050-WAZ558-NCZ071-TXZ119-213-PAZ071-DCZ001-FLZ074-172-MI076-  
NYZ176-178-MAZ016-IL014-TNZ027-NJZ106-GAZ044-MD014-170300-  
   
..GATEWAY OBSERVATIONS FOR CHARLESTON INTERNATIONAL
 
 
 
CITY SKY/WX TMP DP RH WIND PRES REMARKS  
CHAS AIRPORT MOCLDY 82 77 84 S10 30.02R HX 90  
SEATTLE MOSUNNY 89 42 19 N10 29.96F  
CHARLOTTE MOCLDY 77 73 87 CALM 30.02S  
DALLAS DFW PTCLDY 93 62 35 E7 29.93R HX 93  
DALLAS LOVE PTCLDY 95 65 37 SE9 29.93R HX 97  
PHILLADELPHIA FAIR 85 69 58 S12G22 29.92R  
WASH NATIONAL MOCLDY 83 69 62 S6 29.93S  
BALTIMORE FAIR 76 75 97 CALM 29.93R  
MIAMI FAIR 83 75 77 SE6 30.09R HX 90  
DETROIT MOCLDY 78 68 71 NW6 29.88R  
NEWARK MOCLDY 85 72 65 S9 29.90R HX 91  
LAGUARDIA FAIR 83 71 67 S8 29.91R  
J F K FAIR 76 74 93 S14 29.93R  
BOSTON LOGAN FAIR 71 67 87 S3 29.94R  
FT. LAUDERDALE FAIR 85 75 72 SW3 30.09R HX 93  
CHICAGO O'HARE FAIR 79 56 45 N10 29.95R  
CHICAGO MIDWAY FAIR 80 73 79 NE5 29.94R  
HOUSTON BUSH MOCLDY 89 75 63 S8 29.99R HX 99  
HOUSTON HOBBY MOCLDY 85 75 72 S7 30.01R HX 93  
NASHVILLE TSTM 79 74 84 SE7 29.98R  
ATLANTA LGT RAIN 76 71 85 W5 30.04R  
 

 
 
GAZ044-118-TXZ119-213-NCZ071-DCZ001-MDZ014-506-PAZ021-071-NJZ106-  
NYZ176-178-MAZ106-OHZ011-021-055-MIZ076-KYZ091-ILZ014-INZ047-  
MNZ060-ONZ431-170300-  
   
..GATEWAY OBSERVATIONS FOR SAVANNAH INTERNATIONAL
 
 
 
CITY SKY/WX TMP DP RH WIND PRES REMARKS  
SAVANNAH ARPT TSTM 74 73 97 SE7 30.05S FOG  
ATLANTA LGT RAIN 76 71 85 W5 30.04R  
CHARLOTTE MOCLDY 77 73 87 CALM 30.02S  
DALLAS DFW PTCLDY 93 62 35 E7 29.93R HX 93  
HOUSTON BUSH MOCLDY 89 75 63 S8 29.99R HX 99  
WASH NATIONAL MOCLDY 83 69 62 S6 29.93S  
WASH DULLES CLOUDY 77 70 79 S8 29.93S  
BALTIMORE FAIR 76 75 97 CALM 29.93R  
PHILADELPHIA FAIR 85 69 58 S12G22 29.92R  
NEWARK MOCLDY 85 72 65 S9 29.90R HX 91  
LAGUARDIA FAIR 83 71 67 S8 29.91R  
J F K FAIR 76 74 93 S14 29.93R  
BOSTON FAIR 71 67 87 S3 29.94R  
PITTSBURG MOCLDY 78 71 79 SW8 29.90F  
AKRON FAIR 76 72 87 S6 29.92R  
CLEVELAND FAIR 74 71 91 S6 29.88F  
CINCINNATI FAIR 78 73 84 SW6 29.93R  
COLUMBUS FAIR 74 71 91 CALM 29.91R  
DETROIT MOCLDY 78 68 71 NW6 29.88R  
CHICAGO O'HARE FAIR 79 56 45 N10 29.95R  
MINNEAPOLIS FAIR 78 58 49 NW8 29.99S  
INDIANAPOLIS MOCLDY 77 72 84 VRB3 29.94R  
TORONTO CANADA MOCLDY 72 68 88 SW10 29.80S  
 

 
 
 
CLICK HERE TO GO TO PREVIOUS BULLETINS.

The Nexlab SC Page
The Nexlab GA Page Main Text Page